EW0195 Weather Reports


Display with metric or nautical units.
time (UTC)temp
F
wind
direction
speed
MPH
gust
MPH
rain 1hr
in
rain 24hr
in
rain mn
in
humidity
%
barometer
mb
20260502202953 56 7 6.0 14.0 0.00 0.00 0.00 43 1010.7
20260502201452 57 63 3.0 8.0 0.00 0.00 0.00 42 1010.8
20260502194454 56 314 5.0 13.0 0.00 0.00 0.00 44 1011.2
20260502192952 56 341 6.0 15.0 0.00 0.00 0.00 46 1011.5
20260502191452 56 51 6.0 14.0 0.00 0.00 0.00 43 1011.8
20260502185955 57 18 5.0 14.0 0.00 0.00 0.00 45 1012.0
20260502184452 56 55 7.0 16.0 0.00 0.00 0.00 47 1012.2
20260502182952 57 71 4.0 13.0 0.00 0.00 0.00 49 1012.4
20260502181452 56 359 4.0 12.0 0.00 0.00 0.00 51 1012.6
20260502162953 53 68 7.0 15.0 0.00 0.00 0.00 56 1013.0
20260502151452 53 66 6.0 13.0 0.00 0.00 0.00 62 1013.2
20260502122952 45 72 8.0 13.0 0.00 0.00 0.00 80 1013.2
20260502121452 46 74 7.0 14.0 0.00 0.00 0.00 79 1013.2
20260502114452 46 39 5.0 13.0 0.00 0.00 0.00 80 1013.0
20260502112952 47 34 3.0 11.0 0.00 0.00 0.00 80 1013.0
20260502111453 46 51 4.0 10.0 0.00 0.00 0.00 82 1012.8
20260502105955 46 37 2.0 13.0 0.00 0.00 0.00 83 1012.7
20260502104452 46 350 2.0 6.0 0.00 0.00 0.00 83 1012.5
20260502102953 46 34 1.0 7.0 0.00 0.00 0.00 82 1012.3
20260502101452 47 37 2.0 10.0 0.00 0.00 0.00 83 1012.0
20260502091452 49 294 0.0 1.0 0.00 0.00 0.00 85 1012.1
20260502065957 49 51 0.0 0.0 0.00 0.00 0.00 82 1011.7
20260502064453 50 50 1.0 3.0 0.00 0.00 0.00 82 1011.8
20260502062952 50 66 0.0 0.0 0.00 0.00 0.00 81 1012.0
20260502061452 50 23 1.0 5.0 0.00 0.00 0.00 81 1012.2
20260502055955 50 74 0.0 3.0 0.00 0.00 0.00 80 1011.9
20260502054452 50 278 0.0 0.0 0.00 0.00 0.00 81 1012.0
20260502052954 51 278 0.0 0.0 0.00 0.00 0.00 80 1011.9
20260502051453 51 278 0.0 1.0 0.00 0.00 0.00 80 1011.9
20260502045955 51 304 0.0 3.0 0.00 0.00 0.00 81 1012.3
20260502044452 52 304 0.0 1.0 0.00 0.00 0.00 81 1012.0
20260502041452 51 283 0.0 3.0 0.00 0.00 0.00 83 1012.0
20260502035956 51 309 0.0 1.0 0.00 0.00 0.00 84 1011.9
20260502034452 51 297 0.0 1.0 0.00 0.00 0.00 85 1011.8
20260502032951 51 271 0.0 1.0 0.00 0.00 0.00 86 1011.8
20260502031452 51 205 0.0 3.0 0.00 0.00 0.00 86 1011.4
20260502024454 51 178 0.0 1.0 0.00 0.00 0.00 85 1011.6
20260502022953 51 204 1.0 3.0 0.00 0.00 0.00 84 1011.4
20260502021452 52 223 1.0 4.0 0.00 0.00 0.00 83 1011.8
20260502014452 52 251 2.0 4.0 0.00 0.00 0.00 80 1011.7
20260502012952 52 207 1.0 4.0 0.00 0.00 0.00 77 1011.6
20260502011452 53 221 2.0 4.0 0.00 0.00 0.00 72 1011.2
20260502005955 53 241 2.0 4.0 0.00 0.00 0.00 67 1011.3
20260502004454 53 240 1.0 3.0 0.00 0.00 0.00 61 1011.3
20260502002952 54 288 0.0 0.0 0.00 0.00 0.00 59 1011.0
20260502001453 56 288 1.0 3.0 0.00 0.00 0.00 56 1010.7
20260501235956 56 292 1.0 4.0 0.00 0.00 0.00 55 1010.8
20260501234453 57 271 2.0 5.0 0.00 0.00 0.00 53 1010.7
20260501231452 59 276 4.0 9.0 0.00 0.00 0.00 50 1010.6
20260501225956 59 302 5.0 13.0 0.00 0.00 0.00 50 1010.5
20260501224453 59 297 6.0 12.0 0.00 0.00 0.00 50 1010.4
20260501222953 59 263 5.0 11.0 0.00 0.00 0.00 51 1010.4
20260501214453 60 304 5.0 12.0 0.00 0.00 0.00 49 1010.9
20260501212952 60 275 4.0 9.0 0.00 0.00 0.00 50 1010.8
20260501211453 60 307 5.0 10.0 0.00 0.00 0.00 48 1010.8
20260501204452 60 311 5.0 9.0 0.00 0.00 0.00 49 1011.0